"2010-07-28 00:00:00",20461,1.989,344.7,2.269,0.1,21.05,109.4396,23.45,24.31,36.01,0,111.2,13.14,24.29,306.7
"2010-07-28 00:00:30",20462,1.835,340,6.216,0.274,20.99,109.4267,23.42,24.29,36.12,0,111.2,13.14,24.26,302.0
"2010-07-28 00:01:00",20463,1.022,358,8.81,0.269,21.26,109.4213,23.41,24.26,36.04,0,111.2,13.14,24.24,320.0
"2010-07-28 00:01:30",20464,1.091,358.7,8.36,0.251,21.26,109.4342,23.44,24.28,36.03,0,111.2,13.14,24.27,320.7
"2010-07-28 00:02:00",20465,1.133,15.05,5.501,0.203,20.98,109.4601,23.51,24.32,35.81,0,111.2,13.14,24.34,337.0
"2010-07-28 00:02:30",20466,0.818,16.41,8.43,0.35,20.99,109.4924,23.59,24.34,35.78,0,111.2,13.14,24.42,338.4
"2010-07-28 00:03:00",20467,1.03,16.02,9.41,0.307,20.77,109.5039,23.62,24.4,35.67,0,111.2,13.14,24.45,338.0
"2010-07-28 00:03:30",20468,1.186,13.33,6.113,0.173,20.6,109.5325,23.69,24.45,35.66,0,111.2,13.14,24.53,335.3
"2010-07-28 00:04:00",20469,0.895,19.29,5.69,0.146,20.54,109.5364,23.7,24.48,35.54,0,111.2,13.14,24.54,341.3
"2010-07-28 00:04:30",20470,0.785,20.67,2.579,0.089,20.46,109.5569,23.76,24.51,35.46,0,111.2,13.14,24.59,342.7
"2010-07-28 00:05:00",20471,0.773,17.81,6.903,0.158,20.52,109.5665,23.78,24.54,35.37,0,111.2,13.14,24.62,339.8
"2010-07-28 00:05:30",20472,0.421,10.37,8.46,0.146,20.67,109.5749,23.8,24.57,35.37,0,111.2,13.14,24.64,332.4
"2010-07-28 00:06:00",20473,0.576,15.19,9.27,0.319,20.47,109.6016,23.87,24.62,35.25,0,111.2,13.14,24.71,337.2
"2010-07-28 00:06:30",20474,0.433,10.77,11.84,0.209,20.53,109.608,23.89,24.65,35.11,0,111.2,13.14,24.72,332.8
"2010-07-28 00:07:00",20475,0.278,2.793,17.17,0.161,20.73,109.6181,23.91,24.67,35.03,0,111.2,13.14,24.75,324.8
"2010-07-28 00:07:30",20476,0.714,18.79,6.825,0.133,20.21,109.635,23.96,24.7,34.98,0,111.2,13.13,24.79,340.8
"2010-07-28 00:08:00",20477,0.266,16.71,16.27,0.218,20.52,109.6361,23.96,24.72,34.91,0,111.2,13.13,24.80,338.7
"2010-07-28 00:08:30",20478,1.143,34.54,8.8,0.207,20.05,109.618,23.91,24.73,34.76,0,111.2,13.13,24.75,356.5
"2010-07-28 00:09:00",20479,1.351,30.1,5.491,0.182,20.25,109.5875,23.83,24.71,34.87,0,111.3,13.13,24.67,352.1
"2010-07-28 00:09:30",20480,1.27,37.04,4.806,0.103,20.25,109.5643,23.78,24.68,34.86,0,111.2,13.13,24.61,359.0
"2010-07-28 00:10:00",20481,0.993,28.59,7.916,0.224,20.38,109.5595,23.76,24.66,35.02,0,111.2,13.14,24.60,350.6
"2010-07-28 00:10:30",20482,1.035,29.27,5.639,0.19,20.35,109.5595,23.76,24.65,35,0,111.3,13.14,24.60,351.3
"2010-07-28 00:11:00",20483,1.003,29.34,4.435,0.118,20.38,109.5615,23.77,24.65,34.94,0,111.3,13.14,24.60,351.3
"2010-07-28 00:11:30",20484,1.021,26.41,4.595,0.248,20.55,109.5629,23.77,24.66,34.84,0,111.3,13.14,24.61,348.4
"2010-07-28 00:12:00",20485,1.095,33.86,6.982,0.217,20.53,109.5656,23.78,24.66,34.79,0,111.3,13.14,24.61,355.9
"2010-07-28 00:12:30",20486,0.84,30.55,7.01,0.178,20.6,109.5549,23.75,24.66,34.76,0,111.3,13.14,24.59,352.5
"2010-07-28 00:13:00",20487,0.955,27.5,7.476,0.224,20.59,109.5507,23.74,24.65,34.83,0,111.3,13.14,24.58,349.5
"2010-07-28 00:13:30",20488,1.059,35.89,4.128,0.201,20.57,109.5432,23.72,24.65,34.83,0,111.3,13.14,24.56,357.9
"2010-07-28 00:14:00",20489,0.756,38.4,6.935,0.23,20.62,109.5201,23.66,24.61,34.97,0,111.3,13.14,24.50,0.4
"2010-07-28 00:14:30",20490,0.58,42.44,9.85,0.152,20.64,109.5015,23.61,24.59,35.11,0,111.3,13.14,24.45,4.4
"2010-07-28 00:15:00",20491,0.244,58.02,11.42,0.096,20.74,109.4978,23.6,24.56,35.22,0,111.3,13.14,24.44,20.0
"2010-07-28 00:15:30",20492,0.423,62.81,7.245,0.074,20.76,109.4685,23.53,24.54,35.35,0,111.3,13.14,24.36,24.8
"2010-07-28 00:16:00",20493,0.247,93,24.41,0.068,20.8,109.4569,23.5,24.51,35.49,0,111.3,13.14,24.33,55.0
"2010-07-28 00:16:30",20494,0.569,163.5,6.072,0.208,20.71,109.4336,23.44,24.47,35.74,0,111.3,13.14,24.27,125.5
"2010-07-28 00:17:00",20495,1.001,161.9,2.915,0.068,20.74,109.4308,23.43,24.43,35.82,0,111.3,13.13,24.27,123.9
"2010-07-28 00:17:30",20496,1.107,157.2,4.864,0.106,20.65,109.4212,23.41,24.41,35.95,0,111.3,13.13,24.24,119.2
"2010-07-28 00:18:00",20497,1.271,150.5,3.086,0.058,20.68,109.401,23.36,24.38,36.18,0,111.3,13.13,24.19,112.5
"2010-07-28 00:18:30",20498,1.304,151.2,4.232,0.196,20.67,109.3971,23.35,24.33,36.25,0,111.3,13.13,24.18,113.2
"2010-07-28 00:19:00",20499,1.784,143.3,2.531,0.057,20.67,109.3934,23.34,24.32,36.78,0,111.3,13.13,24.17,105.3
"2010-07-28 00:19:30",20500,1.758,141.8,2.227,0.064,20.69,109.3749,23.29,24.27,36.59,0,111.3,13.13,24.12,103.8
"2010-07-28 00:20:00",20501,1.48,142.8,1.445,0.077,20.79,109.371,23.28,24.25,36.34,0,111.3,13.13,24.11,104.8
"2010-07-28 00:20:30",20502,1.528,146.4,2.97,0.142,20.76,109.3696,23.28,24.24,36.36,0,111.3,13.13,24.11,108.4
"2010-07-28 00:21:00",20503,1.656,153.3,3.135,0.08,20.71,109.3651,23.26,24.23,36.71,0,111.3,13.13,24.10,115.3
"2010-07-28 00:21:30",20504,1.64,150.7,3.259,0.116,20.74,109.3634,23.26,24.22,36.66,0,111.3,13.13,24.09,112.7
"2010-07-28 00:22:00",20505,1.65,152,3.055,0.114,20.74,109.3634,23.26,24.2,36.92,0,111.3,13.13,24.09,114.0
"2010-07-28 00:22:30",20506,1.61,157.7,4.939,0.114,20.84,109.3634,23.26,24.18,36.55,0,111.3,13.13,24.09,119.7
"2010-07-28 00:23:00",20507,1.866,164,2.62,0.126,20.91,109.3634,23.26,24.18,36.58,0,111.3,13.13,24.09,126.0
"2010-07-28 00:23:30",20508,2.089,158.9,11.79,0.229,20.92,109.3648,23.26,24.19,36.77,0,111.3,13.12,24.10,120.9
"2010-07-28 00:24:00",20509,2.099,148.2,6.051,0.218,20.91,109.3673,23.27,24.17,37.14,0,111.3,13.12,24.10,110.2
"2010-07-28 00:24:30",20510,2.149,165.1,7.32,0.153,20.97,109.3654,23.26,24.16,36.81,0,111.3,13.12,24.10,127.1
"2010-07-28 00:25:00",20511,2.45,159.1,3.215,0.13,20.94,109.3721,23.28,24.17,36.78,0,111.3,13.12,24.11,121.1
"2010-07-28 00:25:30",20512,2.52,153.9,1.495,0.073,20.93,109.3696,23.28,24.17,37.02,0,111.3,13.12,24.11,115.9
"2010-07-28 00:26:00",20513,2.512,151,1.725,0.109,20.95,109.3634,23.26,24.17,38.32,0,111.3,13.12,24.09,113.0
"2010-07-28 00:26:30",20514,2.867,153.7,4.111,0.13,20.96,109.3634,23.26,24.14,38.81,0,111.3,13.12,24.09,115.7
"2010-07-28 00:27:00",20515,3.246,152.9,3.135,0.184,21.02,109.3564,23.24,24.13,39.17,0,111.3,13.13,24.07,114.9
"2010-07-28 00:27:30",20516,3.072,155.8,3.318,0.152,21.02,109.3393,23.2,24.12,39.44,0,111.3,13.13,24.03,117.8
"2010-07-28 00:28:00",20517,3.373,153,2.336,0.203,21.06,109.33,23.17,24.09,39.66,0,111.3,13.12,24.01,115.0
"2010-07-28 00:28:30",20518,3.697,156.3,6.427,0.24,21.11,109.3297,23.17,24.09,40.31,0,111.3,13.12,24.01,118.3
"2010-07-28 00:29:00",20519,3.924,165.5,1.857,0.14,21.15,109.3297,23.17,24.07,41.01,0,111.3,13.13,24.01,127.5
"2010-07-28 00:29:30",20520,3.985,171.3,2.3,0.189,21.18,109.3295,23.17,24.06,40.76,0,111.3,13.12,24.00,133.3
"2010-07-28 00:30:00",20521,3.916,167,2.527,0.151,21.18,109.3157,23.14,24.06,41.37,0,111.3,13.13,23.97,129.0
"2010-07-28 00:30:30",20522,3.872,165.8,2.006,0.219,21.17,109.3025,23.1,24.04,41.27,0,111.3,13.13,23.94,127.8
"2010-07-28 00:31:00",20523,3.689,168.7,1.648,0.133,21.19,109.2966,23.09,24.04,41.09,0,111.3,13.13,23.92,130.7
"2010-07-28 00:31:30",20524,3.9,167.6,6.231,0.254,21.17,109.2961,23.09,24,41.17,0,111.3,13.13,23.92,129.6
"2010-07-28 00:32:00",20525,4.303,159.2,2.484,0.24,21.23,109.2961,23.09,23.99,41.18,0,111.3,13.13,23.92,121.2
"2010-07-28 00:32:30",20526,4.759,164,2.425,0.284,21.27,109.2961,23.09,23.97,40.81,0,111.3,13.13,23.92,126.0
"2010-07-28 00:33:00",20527,4.603,164.6,2.142,0.213,21.31,109.2958,23.09,23.98,39.63,0,111.3,13.13,23.92,126.6
"2010-07-28 00:33:30",20528,5.371,166.5,2.974,0.192,21.44,109.2958,23.09,23.97,39.35,0,111.3,13.13,23.92,128.5
"2010-07-28 00:34:00",20529,5.39,165.1,2.017,0.21,21.39,109.2966,23.09,24,39.91,0,111.3,13.13,23.92,127.1
"2010-07-28 00:34:30",20530,4.944,166.2,5.321,0.391,21.34,109.2963,23.09,24,40.83,0,111.2,13.13,23.92,128.2
"2010-07-28 00:35:00",20531,5.389,167.9,2.578,0.274,21.38,109.2961,23.09,23.98,40.63,0,111.3,13.13,23.92,129.9
"2010-07-28 00:35:30",20532,5.614,165.9,2.357,0.233,21.42,109.2967,23.09,24,40.15,0,111.2,13.13,23.92,127.9
"2010-07-28 00:36:00",20533,5.96,167.2,2.645,0.145,21.46,109.2967,23.09,23.98,40.19,0,111.2,13.13,23.92,129.2
"2010-07-28 00:36:30",20534,5.594,173.7,3.221,0.339,21.43,109.297,23.09,24.01,40.07,0,111.2,13.13,23.92,135.7
"2010-07-28 00:37:00",20535,4.972,180,2.07,0.182,21.49,109.2979,23.09,23.98,40.07,0,111.2,13.13,23.92,142.0
"2010-07-28 00:37:30",20536,5.044,177.9,2.406,0.228,21.5,109.3022,23.1,23.99,39.63,0,111.2,13.13,23.93,139.9
"2010-07-28 00:38:00",20537,5.46,174.2,2.545,0.474,21.51,109.3007,23.1,23.99,39.6,0,111.2,13.14,23.93,136.2
"2010-07-28 00:38:30",20538,5.969,170.4,1.522,0.331,21.46,109.3037,23.11,23.99,39.24,0,111.2,13.14,23.94,132.4
"2010-07-28 00:39:00",20539,5.758,173.8,2.497,0.203,21.49,109.3093,23.12,23.98,39.06,0,111.2,13.13,23.95,135.8
"2010-07-28 00:39:30",20540,5.871,176.1,3.876,0.21,21.53,109.3143,23.13,23.99,39.07,0,111.2,13.12,23.97,138.1
"2010-07-28 00:40:00",20541,5.599,173.5,2.246,0.291,21.57,109.3213,23.15,23.99,39.2,0,111.2,13.13,23.98,135.5
"2010-07-28 00:40:30",20542,5.794,176.8,1.223,0.13,21.5,109.3198,23.15,23.98,39.74,0,111.2,13.12,23.98,138.8
"2010-07-28 00:41:00",20543,5.712,176.9,1.274,0.235,21.55,109.3147,23.13,23.98,39.7,0,111.2,13.13,23.97,138.9
"2010-07-28 00:41:30",20544,5.718,180.6,2.894,0.23,21.57,109.3077,23.12,23.97,39.42,0,111.2,13.13,23.95,142.6
"2010-07-28 00:42:00",20545,5.875,181.9,1.376,0.122,21.55,109.3026,23.1,23.97,39.38,0,111.2,13.13,23.94,143.9
"2010-07-28 00:42:30",20546,6.008,181.9,0.826,0.113,21.58,109.3035,23.11,23.99,39.32,0,111.2,13.13,23.94,143.9
"2010-07-28 00:43:00",20547,6.113,181.6,1.225,0.148,21.53,109.3008,23.1,23.97,39.75,0,111.2,13.13,23.93,143.6
"2010-07-28 00:43:30",20548,6.383,182.1,1.176,0.106,21.54,109.3002,23.1,23.97,40.21,0,111.2,13.13,23.93,144.1
"2010-07-28 00:44:00",20549,6.553,182.3,1.383,0.135,21.55,109.2963,23.09,23.95,40.2,0,111.2,13.13,23.92,144.3
"2010-07-28 00:44:30",20550,6.135,185.5,1.62,0.148,21.58,109.2973,23.09,23.96,40.31,0,111.2,13.13,23.92,147.5
"2010-07-28 00:45:00",20551,5.975,188.6,1.083,0.122,21.63,109.2992,23.09,23.96,40.26,0,111.2,13.13,23.93,150.6
"2010-07-28 00:45:30",20552,6.353,186.9,1.415,0.158,21.71,109.2992,23.09,23.96,40.37,0,111.2,13.14,23.93,148.9
"2010-07-28 00:46:00",20553,6.568,185.9,1.619,0.212,21.69,109.3051,23.11,23.97,40.47,0,111.2,13.14,23.94,147.9
"2010-07-28 00:46:30",20554,6.479,188.5,1.138,0.23,21.71,109.307,23.11,23.97,40.5,0,111.2,13.14,23.95,150.5
"2010-07-28 00:47:00",20555,6.502,190.4,1.257,0.113,21.71,109.3076,23.12,23.99,40.54,0,111.2,13.14,23.95,152.4
"2010-07-28 00:47:30",20556,6.369,190.3,1.332,0.157,21.73,109.3076,23.12,23.98,40.47,0,111.2,13.14,23.95,152.3
"2010-07-28 00:48:00",20557,6.512,188.6,2.19,0.236,21.65,109.3076,23.12,24,40.69,0,111.2,13.14,23.95,150.6
"2010-07-28 00:48:30",20558,6.853,184.1,1.269,0.106,21.55,109.3014,23.1,23.99,41.12,0,111.2,13.14,23.93,146.1
"2010-07-28 00:49:00",20559,7.198,186.5,1.535,0.245,21.6,109.2953,23.08,23.97,42.65,0,111.2,13.14,23.92,148.5
"2010-07-28 00:49:30",20560,7.471,186.5,1.09,0.375,21.57,109.2683,23.02,23.94,42.47,0,111.2,13.14,23.85,148.5
"2010-07-28 00:50:00",20561,7.107,190.5,1.012,0.269,21.63,109.2655,23.01,23.91,41.58,0,111.1,13.14,23.84,152.5
"2010-07-28 00:50:30",20562,6.775,191.9,1.797,0.333,21.69,109.2486,22.96,23.89,41.51,0,111.1,13.15,23.80,153.9
"2010-07-28 00:51:00",20563,6.519,193.1,0.966,0.09,21.75,109.2562,22.98,23.89,40.51,0,111.1,13.15,23.82,155.1
"2010-07-28 00:51:30",20564,6.769,192.4,0.7,0.147,21.66,109.2655,23.01,23.9,40.47,0,111.1,13.15,23.84,154.4
"2010-07-28 00:52:00",20565,7.035,190.7,1.493,0.195,21.72,109.2655,23.01,23.91,40.49,0,111.1,13.15,23.84,152.7
"2010-07-28 00:52:30",20566,7.11,189.9,1.447,0.214,21.79,109.2683,23.01,23.9,40.41,0,111.1,13.15,23.85,151.9
"2010-07-28 00:53:00",20567,7.435,188.9,1.849,0.17,21.68,109.2744,23.03,23.89,41.27,0,111.1,13.15,23.86,150.9
"2010-07-28 00:53:30",20568,7.023,191.2,1.395,0.117,21.68,109.2749,23.03,23.9,41.3,0,111.1,13.15,23.86,153.2
"2010-07-28 00:54:00",20569,6.881,192.7,2.178,0.161,21.68,109.2624,23,23.89,41.47,0,111.1,13.15,23.83,154.7
"2010-07-28 00:54:30",20570,7.325,193.2,1.742,0.367,21.68,109.26,22.99,23.88,41.71,0,111.1,13.15,23.83,155.2
"2010-07-28 00:55:00",20571,7.267,198.1,3.621,0.2,21.69,109.2581,22.99,23.88,41.39,0,111.1,13.15,23.82,160.1
"2010-07-28 00:55:30",20572,7.406,196.8,1.277,0.091,21.65,109.2594,22.99,23.88,41.5,0,111.1,13.15,23.82,158.8
"2010-07-28 00:56:00",20573,7.313,197.2,1.125,0.163,21.77,109.2588,22.99,23.87,40.93,0,111.1,13.15,23.82,159.2
"2010-07-28 00:56:30",20574,6.963,200.4,2.083,0.222,21.8,109.2659,23.01,23.88,40.73,0,111.1,13.15,23.84,162.4
"2010-07-28 00:57:00",20575,6.138,204.4,1.592,0.127,21.89,109.2786,23.04,23.91,39.73,0,111.1,13.15,23.87,166.4
"2010-07-28 00:57:30",20576,6.463,203.2,1.765,0.309,21.75,109.2956,23.09,23.92,40.37,0,111.1,13.14,23.92,165.2
"2010-07-28 00:58:00",20577,6.598,203.5,1.231,0.144,21.57,109.2993,23.09,23.93,41.68,0,111.1,13.14,23.93,165.5
"2010-07-28 00:58:30",20578,6.599,203.2,1.262,0.122,21.61,109.2838,23.05,23.92,41.57,0,111.1,13.14,23.89,165.2
"2010-07-28 00:59:00",20579,6.77,205.1,1.313,0.127,21.69,109.2689,23.02,23.9,41.55,0,111.1,13.14,23.85,167.1
"2010-07-28 00:59:30",20580,6.901,204.8,1.462,0.172,21.62,109.2686,23.02,23.88,41.69,0,111.1,13.14,23.85,166.8
"2010-07-28 01:00:00",20581,7.047,202.3,1.683,0.148,21.58,109.2602,22.99,23.86,42,0,111.1,13.14,23.83,164.3
"2010-07-28 01:00:30",20582,7.019,202.2,1.759,0.126,21.63,109.2417,22.95,23.85,42.07,0,111.1,13.14,23.78,164.2
"2010-07-28 01:01:00",20583,6.788,202.9,0.79,0.119,21.71,109.2358,22.93,23.84,41.98,0,111.1,13.15,23.76,164.9
"2010-07-28 01:01:30",20584,7.152,202,1.079,0.214,21.65,109.2349,22.93,23.83,42.14,0,111.1,13.15,23.76,164.0
"2010-07-28 01:02:00",20585,7.314,203,0.828,0.193,21.67,109.2346,22.93,23.83,42,0,111.1,13.15,23.76,165.0
"2010-07-28 01:02:30",20586,7.182,199.8,0.932,0.131,21.68,109.231,22.92,23.81,42.35,0,111.1,13.15,23.75,161.8
"2010-07-28 01:03:00",20587,7.407,202,0.961,0.183,21.65,109.2119,22.87,23.8,42.7,0,111.1,13.15,23.70,164.0
"2010-07-28 01:03:30",20588,7.944,198.7,1.285,0.087,21.62,109.2018,22.84,23.77,43.52,0,111.1,13.15,23.68,160.7
"2010-07-28 01:04:00",20589,8.4,194.2,0.992,0.118,21.49,109.1914,22.82,23.75,44.42,0,111.1,13.15,23.65,156.2
"2010-07-28 01:04:30",20590,8.15,194.5,0.889,0.103,21.48,109.1686,22.76,23.71,44.27,0,111.1,13.15,23.59,156.5
"2010-07-28 01:05:00",20591,7.995,190.4,1.301,0.132,21.43,109.1509,22.71,23.67,44.66,0,111.1,13.16,23.54,152.4
"2010-07-28 01:05:30",20592,8.34,191.6,0.845,0.166,21.44,109.1273,22.65,23.62,45.2,0,111.1,13.16,23.48,153.6
"2010-07-28 01:06:00",20593,8.48,191.6,1.294,0.17,21.54,109.1077,22.6,23.6,44.37,0,111.1,13.16,23.43,153.6
"2010-07-28 01:06:30",20594,7.932,190,1.229,0.338,21.47,109.1001,22.58,23.57,43.79,0,111.1,13.16,23.41,152.0
"2010-07-28 01:07:00",20595,7.962,186.4,2.238,0.194,21.43,109.0849,22.54,23.53,43.4,0,111.1,13.16,23.37,148.4
"2010-07-28 01:07:30",20596,7.681,184.7,1.744,0.306,21.51,109.0746,22.52,23.5,43.37,0,111.1,13.16,23.35,146.7
"2010-07-28 01:08:00",20597,7.52,183.7,1.662,0.174,21.55,109.0823,22.54,23.48,43.13,0,111,13.16,23.37,145.7
"2010-07-28 01:08:30",20598,6.864,181.3,1.133,0.189,21.52,109.0903,22.56,23.48,42.71,0,111.1,13.16,23.39,143.3
"2010-07-28 01:09:00",20599,6.987,176.9,1.854,0.207,21.35,109.093,22.56,23.47,42.42,0,111.1,13.16,23.40,138.9
"2010-07-28 01:09:30",20600,6.824,181.3,1.639,0.182,21.35,109.094,22.57,23.45,42.42,0,111,13.16,23.40,143.3
"2010-07-28 01:10:00",20601,6.476,182.4,1.514,0.418,21.36,109.0934,22.57,23.44,42.4,0,111,13.16,23.40,144.4
"2010-07-28 01:10:30",20602,6.065,182.9,2.862,0.274,21.32,109.0875,22.55,23.43,42.52,0,111,13.16,23.38,144.9
"2010-07-28 01:11:00",20603,5.936,174.2,3.96,0.222,21.33,109.0699,22.51,23.42,43.09,0,111,13.16,23.34,136.2
"2010-07-28 01:11:30",20604,5.898,163.5,2.564,0.168,21.45,109.0646,22.49,23.4,42.91,0,111,13.16,23.32,125.5
"2010-07-28 01:12:00",20605,5.821,162.8,3.167,0.23,21.25,109.0685,22.5,23.39,43.38,0,111,13.16,23.33,124.8
"2010-07-28 01:12:30",20606,5.582,163,1.26,0.304,21.45,109.0691,22.5,23.38,42.91,0,111,13.16,23.33,125.0
"2010-07-28 01:13:00",20607,5.931,166.9,3.064,0.24,21.42,109.0695,22.5,23.38,43.01,0,111,13.16,23.34,128.9
"2010-07-28 01:13:30",20608,6.636,174.1,2.133,0.333,21.17,109.0692,22.5,23.37,44,0,111,13.16,23.33,136.1
"2010-07-28 01:14:00",20609,6.457,178.9,4.573,0.504,21.15,109.0428,22.44,23.34,44.11,0,111,13.16,23.27,140.9
"2010-07-28 01:14:30",20610,6.125,178.3,4.971,0.308,21.11,109.0265,22.39,23.3,44.5,0,111,13.15,23.22,140.3
"2010-07-28 01:15:00",20611,6.273,172.9,1.941,0.158,21.2,109.002,22.33,23.27,44.66,0,111,13.15,23.16,134.9
"2010-07-28 01:15:30",20612,6.552,165.2,3.597,0.264,21.46,109.0009,22.33,23.23,43.71,0,111,13.16,23.16,127.2
"2010-07-28 01:16:00",20613,6.736,161.1,1.275,0.124,21.53,109.002,22.33,23.24,42.76,0,111,13.15,23.16,123.1
"2010-07-28 01:16:30",20614,6.284,167,3.827,0.141,21.16,109.0054,22.34,23.24,44.01,0,111,13.16,23.17,129.0
"2010-07-28 01:17:00",20615,6.13,167.5,4.572,0.202,21.12,108.9981,22.32,23.24,44.54,0,111,13.16,23.15,129.5
"2010-07-28 01:17:30",20616,6.32,160.6,1.687,0.157,21.37,108.9981,22.32,23.21,42.76,0,111,13.16,23.15,122.6
"2010-07-28 01:18:00",20617,6.711,161.6,1.857,0.203,21.26,109.002,22.33,23.21,43.28,0,111,13.16,23.16,123.6
"2010-07-28 01:18:30",20618,7.106,164.1,3.275,0.138,21.02,108.9939,22.31,23.22,44.37,0,111,13.17,23.14,126.1
"2010-07-28 01:19:00",20619,7.16,162.8,1.635,0.234,20.99,108.9701,22.25,23.2,44.81,0,111,13.16,23.08,124.8
"2010-07-28 01:19:30",20620,6.205,162.4,2.926,0.347,21.05,108.9496,22.2,23.16,44.84,0,111,13.16,23.03,124.4
"2010-07-28 01:20:00",20621,6.265,162.3,1.894,0.171,21.05,108.9373,22.17,23.13,45.13,0,111,13.16,22.99,124.3
"2010-07-28 01:20:30",20622,6.436,158.3,4.072,0.288,21.1,108.9374,22.17,23.11,45.28,0,111,13.17,22.99,120.3
"2010-07-28 01:21:00",20623,6.412,147.5,4.683,0.316,21.69,108.9227,22.13,23.1,43.72,0,111,13.17,22.96,109.5
"2010-07-28 01:21:30",20624,6.887,145.1,2.057,0.428,21.78,108.9462,22.19,23.09,43.18,0,111,13.17,23.02,107.1
"2010-07-28 01:22:00",20625,6.983,145.8,1.669,0.265,21.75,108.9901,22.3,23.12,42.74,0,111,13.17,23.13,107.8
"2010-07-28 01:22:30",20626,7.166,147.5,2.082,0.121,21.63,109.0259,22.39,23.19,43.24,0,111,13.17,23.22,109.5
"2010-07-28 01:23:00",20627,7.545,143.9,1.051,0.117,21.87,109.0545,22.47,23.23,42.34,0,111,13.17,23.30,105.9
"2010-07-28 01:23:30",20628,7.375,142,1.309,0.201,21.49,109.0887,22.55,23.28,42.82,0,111,13.17,23.38,104.0
"2010-07-28 01:24:00",20629,7.167,142.5,1.953,0.129,21.4,109.0909,22.56,23.33,43.45,0,111,13.17,23.39,104.5
"2010-07-28 01:24:30",20630,7.184,139.3,0.853,0.121,21.94,109.1026,22.59,23.34,42,0,111,13.17,23.42,101.3
"2010-07-28 01:25:00",20631,7.446,137.3,0.891,0.091,21.88,109.1278,22.65,23.37,41.88,0,111,13.17,23.49,99.3
"2010-07-28 01:25:30",20632,7.437,137.1,0.955,0.083,21.97,109.149,22.71,23.42,41.64,0,111,13.17,23.54,99.1
"2010-07-28 01:26:00",20633,7.202,137.9,1.071,0.133,21.47,109.1648,22.75,23.48,42.25,0,111,13.17,23.58,99.9
"2010-07-28 01:26:30",20634,6.975,143,0.952,0.123,21.12,109.1645,22.75,23.51,43.2,0,111,13.17,23.58,105.0
"2010-07-28 01:27:00",20635,6.605,147.5,1.636,0.123,20.96,109.1389,22.68,23.53,43.86,0,111,13.17,23.51,109.5
"2010-07-28 01:27:30",20636,6.382,151.6,1.671,0.134,20.9,109.1046,22.59,23.49,44.17,0,111,13.17,23.43,113.6
"2010-07-28 01:28:00",20637,6.429,151.2,0.735,0.116,20.85,109.0617,22.48,23.43,44.58,0,111,13.17,23.31,113.2
"2010-07-28 01:28:30",20638,6.19,146.1,1.795,0.085,21.03,109.0238,22.39,23.4,44.74,0,111,13.17,23.22,108.1
"2010-07-28 01:29:00",20639,6.179,144.4,1.089,0.067,20.98,108.996,22.32,23.34,45.07,0,111,13.17,23.15,106.4
"2010-07-28 01:29:30",20640,6.364,143.9,1.973,0.095,20.98,108.9662,22.24,23.28,45.26,0,111,13.17,23.07,105.9
"2010-07-28 01:30:00",20641,6.497,138.1,2.824,0.131,21.4,108.9552,22.21,23.25,44.8,0,111,13.17,23.04,100.1
"2010-07-28 01:30:30",20642,6.514,140,1.12,0.167,21.26,108.9417,22.18,23.21,45.03,0,111,13.17,23.01,102.0
"2010-07-28 01:31:00",20643,6.262,141.7,2.401,0.174,21.24,108.9399,22.17,23.19,45.26,0,111,13.17,23.00,103.7
"2010-07-28 01:31:30",20644,6.293,142,3.538,0.194,21.18,108.9373,22.17,23.16,45.47,0,111,13.17,22.99,104.0
"2010-07-28 01:32:00",20645,6.207,136.8,2.333,0.132,21.26,108.9376,22.17,23.14,45.44,0,111,13.17,23.00,98.8
"2010-07-28 01:32:30",20646,6.291,133.4,1.299,0.104,21.48,108.9373,22.17,23.12,44.93,0,111,13.17,22.99,95.4
"2010-07-28 01:33:00",20647,5.898,133.3,2.01,0.129,21.4,108.9376,22.17,23.12,44.92,0,111,13.17,23.00,95.3
"2010-07-28 01:33:30",20648,5.936,135,1.544,0.189,21.46,108.9396,22.17,23.13,44.6,0,111,13.17,23.00,97.0
"2010-07-28 01:34:00",20649,5.823,132.9,1.719,0.125,21.5,108.9559,22.21,23.13,44.18,0,111,13.17,23.04,94.9
"2010-07-28 01:34:30",20650,5.972,131.2,2.353,0.232,21.51,108.971,22.25,23.14,43.78,0,111,13.17,23.08,93.2
"2010-07-28 01:35:00",20651,6.168,129.2,1.712,0.165,21.48,108.9739,22.26,23.17,43.52,0,111,13.17,23.09,91.2
"2010-07-28 01:35:30",20652,5.671,129.6,1.736,0.215,21.42,108.9809,22.28,23.15,43.72,0,111,13.17,23.11,91.6
"2010-07-28 01:36:00",20653,5.981,128.5,1.726,0.16,21.45,108.998,22.32,23.19,43.47,0,111,13.17,23.15,90.5
"2010-07-28 01:36:30",20654,5.846,129.1,1.485,0.141,21.46,109.0051,22.34,23.2,43.24,0,111,13.18,23.17,91.1
"2010-07-28 01:37:00",20655,6.052,128.4,1.482,0.151,21.46,109.0051,22.34,23.21,43.1,0,111,13.18,23.17,90.4
"2010-07-28 01:37:30",20656,5.876,129,1.405,0.155,21.37,109.0051,22.34,23.21,43.29,0,111,13.18,23.17,91.0
"2010-07-28 01:38:00",20657,6.322,127.8,1.785,0.19,21.44,109.0051,22.34,23.24,43.38,0,111,13.18,23.17,89.8
"2010-07-28 01:38:30",20658,6.405,127.3,1.5,0.217,21.64,109.0056,22.34,23.24,42.99,0,111,13.18,23.17,89.3
"2010-07-28 01:39:00",20659,6.457,127.4,1.718,0.146,21.51,109.0121,22.36,23.25,43.1,0,111,13.18,23.19,89.4
"2010-07-28 01:39:30",20660,6.11,125.4,0.706,0.11,21.47,109.0155,22.37,23.26,43.03,0,111,13.18,23.20,87.4
"2010-07-28 01:40:00",20661,5.976,127.8,1.266,0.201,21.45,109.0279,22.4,23.27,42.88,0,111,13.18,23.23,89.8
"2010-07-28 01:40:30",20662,6.201,128.1,1.039,0.245,21.4,109.0285,22.4,23.28,42.85,0,111,13.18,23.23,90.1
"2010-07-28 01:41:00",20663,7.033,127.5,0.922,0.165,21.65,109.0361,22.42,23.29,42,0,111,13.18,23.25,89.5
"2010-07-28 01:41:30",20664,7.148,127.6,0.984,0.07,21.54,109.0418,22.43,23.3,41.77,0,111,13.19,23.26,89.6
"2010-07-28 01:42:00",20665,7.064,126.7,1.397,0.109,21.51,109.0434,22.44,23.31,41.78,0,111,13.19,23.27,88.7
"2010-07-28 01:42:30",20666,7.073,128.9,0.865,0.141,21.47,109.0458,22.44,23.34,41.78,0,111,13.19,23.27,90.9
"2010-07-28 01:43:00",20667,7.11,128.7,1.022,0.116,21.45,109.0482,22.45,23.33,41.75,0,111,13.19,23.28,90.7
"2010-07-28 01:43:30",20668,6.81,127.4,1.284,0.108,21.46,109.052,22.46,23.35,41.47,0,111,13.19,23.29,89.4
"2010-07-28 01:44:00",20669,6.509,128.1,1.665,0.165,21.5,109.0623,22.49,23.36,41.41,0,111,13.19,23.32,90.1
"2010-07-28 01:44:30",20670,6.602,127,1.147,0.104,21.51,109.0689,22.5,23.37,41.24,0,111,13.19,23.33,89.0
"2010-07-28 01:45:00",20671,6.638,127.6,1.281,0.157,21.58,109.0777,22.53,23.38,40.9,0,111,13.19,23.36,89.6
"2010-07-28 01:45:30",20672,6.54,130.5,1.29,0.188,21.47,109.0897,22.56,23.4,41.1,0,111,13.19,23.39,92.5
"2010-07-28 01:46:00",20673,6.678,128.6,1.648,0.23,21.63,109.0915,22.56,23.41,40.39,0,111,13.19,23.39,90.6
"2010-07-28 01:46:30",20674,7.15,129.9,2.705,0.205,21.72,109.0973,22.58,23.41,39.65,0,111,13.19,23.41,91.9
"2010-07-28 01:47:00",20675,6.93,131.7,2.073,0.093,21.64,109.1035,22.59,23.43,39.85,0,111,13.19,23.42,93.7
"2010-07-28 01:47:30",20676,6.622,131.6,1.892,0.272,21.4,109.1082,22.6,23.44,40.54,0,111,13.18,23.43,93.6
"2010-07-28 01:48:00",20677,6.979,131.5,0.783,0.121,21.65,109.1124,22.61,23.45,39.05,0,111,13.18,23.45,93.5
"2010-07-28 01:48:30",20678,6.886,131.9,1.052,0.124,21.55,109.1302,22.66,23.47,39.47,0,111,13.18,23.49,93.9
"2010-07-28 01:49:00",20679,6.99,132.5,0.881,0.166,21.64,109.1338,22.67,23.49,39.02,0,110.9,13.18,23.50,94.5
"2010-07-28 01:49:30",20680,7.19,133.4,0.634,0.124,21.7,109.1345,22.67,23.52,38.82,0,111,13.18,23.50,95.4